This demonstration page uses our WeatherBlox Daily Observations layout. Learn more.

Left ArrowRight Arrow

Hourly Observations for February 17, 2018

Temp ( °F °C ) Dew Point ( °F °C ) Humidity (%) Winds ( mph kmh ) Pressure ( in mb ) Visibility ( mi km ) Precip ( " mm )
12:54 am 00:54 Clear 24 -4.4 14 -10 65 65 S 8 13 30.07 1018 10 16 0.00 0.00
1:54 am 01:54 Clear 29 -1.7 15 -9.4 56 56 S 9 15 30.04 1017 10 16 0.00 0.00
2:54 am 02:54 Partly Cloudy 28 -2.2 14 -10 56 56 S 12 19 30.01 1016 10 16 0.00 0.00
3:54 am 03:54 Partly Cloudy 28 -2.2 15 -9.4 58 58 S 9 15 29.96 1015 10 16 0.00 0.00
4:54 am 04:54 Clear 29 -1.7 17 -8.3 61 61 S 12 19 29.95 1014 10 16 0.00 0.00
5:54 am 05:54 Clear 28 -2.2 17 -8.3 63 63 SSW 8 13 29.94 1014 10 16 0.00 0.00
6:54 am 06:54 Clear 28 -2.2 17 -8.3 63 63 SW 10 17 29.96 1015 10 16 0.00 0.00
7:54 am 07:54 Mostly Cloudy 29 -1.7 17 -8.3 61 61 W 9 15 29.98 1015 10 16 0.00 0.00
8:54 am 08:54 Sunny 32 0 19 -7.2 59 59 NW 10 17 30.01 1016 10 16 0.00 0.00
9:54 am 09:54 Sunny 39 3.9 23 -5 53 53 NW 16 26 30.02 1017 10 16 0.00 0.00
10:54 am 10:54 Sunny 42 5.6 25 -3.9 51 51 NNW 13 20 30.04 1017 10 16 0.00 0.00
11:54 am 11:54 Sunny 47 8.3 27 -2.8 46 46 NW 14 22 30.08 1019 10 16 0.00 0.00
12:54 pm 12:54 Sunny 49 9.4 22 -5.6 35 35 NNW 13 20 30.09 1019 10 16 0.00 0.00
1:54 pm 13:54 Sunny 49 9.4 21 -6.1 33 33 NW 15 24 30.09 1019 10 16 0.00 0.00
2:54 pm 14:54 Sunny 49 9.4 22 -5.6 35 35 NNW 15 24 30.11 1020 10 16 0.00 0.00
3:54 pm 15:54 Sunny 49 9.4 23 -5 36 36 NW 13 20 30.13 1020 10 16 0.00 0.00
4:54 pm 16:54 Sunny 47 8.3 24 -4.4 41 41 NNW 9 15 30.14 1021 10 16 0.00 0.00
5:54 pm 17:54 Sunny 42 5.6 24 -4.4 49 49 N 5 7 30.15 1021 10 16 0.00 0.00
6:54 pm 18:54 Clear 32 0 23 -5 69 69 ENE 5 7 30.18 1022 10 16 0.00 0.00
7:54 pm 19:54 Clear 30 -1.1 22 -5.6 72 72 Calm 30.18 1022 10 16 0.00 0.00
8:54 pm 20:54 Clear 30 -1.1 22 -5.6 72 72 Calm 30.17 1022 10 16 0.00 0.00
9:54 pm 21:54 Clear 26 -3.3 20 -6.7 78 78 Calm 30.15 1021 10 16 0.00 0.00
10:54 pm 22:54 Clear 26 -3.3 21 -6.1 81 81 Calm 30.14 1021 10 16 0.00 0.00
11:54 pm 23:54 Clear 28 -2.2 21 -6.1 75 75 SSE 5 7 30.09 1019 10 16 0.00 0.00

Powered by AerisWeather